Flag for Germany Weather past 2 weeks in Leimen, Baden-Württemberg, Germany

Now
45 °F

Partly sunny.


Feels Like: 37 °F
Forecast: 35 / 48 °F
Wind: 18 mph from Northwest

Location: Baden Wurttemberg - Neuostheim

Current Time: Apr 1, 2015 at 11:25:19 AM

Latest Report: Apr 1, 2015 at 10:50 AM


Visibility: N/A

Pressure: 30.09 "Hg

Humidity: 57%

Dew point: 30 °F

Location of LeimenLocation

Historic Weather in Leimen — Graph

°F

Leimen temperature yesterday

Maximum temperature yesterday: 57 °F (at 7:20 AM)
Minimum temperature yesterday: 43 °F (at 10:50 PM)
Average temperature yesterday: 52 °F

Past Weeks' High & Low Weather Summary

 TemperatureHumidityPressure
High64 °F (Mar 17, 3:50 PM)100% (Mar 21, 9:20 AM)30.30 "Hg (Mar 21, 9:20 AM)
Low30 °F (Mar 24, 5:20 AM)34% (Mar 20, 3:50 PM)29.50 "Hg (Mar 30, 5:50 AM)
Average50 °F63%29.97 "Hg
* Reported Mar 17 8:20 AM — Apr 1 9:50 AM, Leimen, Weather by CustomWeather, © 2015

Note: Actual official high and low records may vary slightly from our data, if they occured in-between our weather recording intervals... More about our weather records

Advertising

Leimen weather history for previous 24 hours

 ConditionsComfort  
Time TempWeatherWind HumidityBarometerVisibility
9:50 AM
Wed, Apr 1
43 °FMore clouds than sun.13 mph57%30.09 "HgN/A
9:20 AM43 °FBroken clouds.13 mph57%30.07 "HgN/A
8:50 AM41 °FPassing clouds.13 mph61%30.07 "HgN/A
8:20 AM41 °FPassing clouds.10 mph61%30.04 "HgN/A
7:50 AM41 °FPassing clouds.9 mph70%30.04 "HgN/A
7:20 AM41 °FPassing clouds.9 mph70%30.04 "HgN/A
6:50 AM41 °FPassing clouds.17 mph66%30.01 "HgN/A
6:20 AM41 °FPassing clouds.8 mph76%29.98 "HgN/A
5:50 AM41 °FPassing clouds.12 mph70%29.98 "HgN/A
10:50 PM
Tue, Mar 31
43 °FPassing clouds.15 mph81%29.89 "HgN/A
9:50 PM45 °FSprinkles. Passing clouds.21 mph76%29.89 "HgN/A
9:20 PM48 °FClear.15 mph62%29.86 "Hg10 mi
8:50 PM48 °FPassing clouds.14 mph62%29.86 "HgN/A
8:20 PM48 °FSunny.16 mph66%29.86 "Hg10 mi
7:50 PM48 °FSunny.17 mph66%29.83 "Hg10 mi
7:20 PM48 °FSunny.17 mph62%29.83 "Hg10 mi
6:50 PM48 °FSunny.17 mph62%29.80 "Hg10 mi
6:20 PM50 °FSunny.17 mph62%29.80 "Hg10 mi
5:50 PM48 °FPartly sunny.20 mph66%29.77 "HgN/A
5:20 PM48 °FBroken clouds.18 mph71%29.77 "HgN/A
4:50 PM46 °FScattered showers. Broken clouds.20 mph76%29.74 "HgN/A
4:20 PM46 °FScattered showers. Partly sunny.28 mph82%29.74 "Hg6 mi
3:50 PM50 °FScattered showers. Partly sunny.22 mph62%29.68 "HgN/A
3:20 PM52 °FScattered showers. Scattered clouds.30 mph72%29.68 "HgN/A
2:50 PM57 °FPassing clouds.28 mph51%29.65 "HgN/A
2:20 PM55 °FPassing clouds.26 mph55%29.62 "HgN/A
1:50 PM52 °FScattered showers. Broken clouds.22 mph67%29.65 "HgN/A
1:20 PM54 °FScattered showers. Partly sunny.25 mph67%29.62 "HgN/A
12:50 PM54 °FPartly sunny.23 mph67%29.62 "HgN/A
12:20 PM55 °FLight rain. Broken clouds.21 mph67%29.59 "HgN/A
11:50 AM54 °FLight rain. Partly sunny.20 mph77%29.59 "HgN/A
11:20 AM54 °FLight rain. Partly sunny.29 mph72%29.59 "HgN/A
Weather by CustomWeather, © 2015

See weather overviewHow to use our weather pages